Location: Degersen
(52.2871°N, 9.5716°E)
Time: 07:25:15
(UTC+00:00)

Meteor 1-24 Rocket - Pass Details

Date: 20 January 2026
Orbit: 790 x 925 km, 81.3° (Epoch: 18 February)

Event Time Altitude Azimuth Distance (km) Brightness Sun altitude
Rises 05:26:33 0° 346° (NNW) 3,579 6.7 -16.7°
Reaches altitude 10° 05:29:02 10° 346° (NNW) 2,637 6.0 -16.3°
Maximum altitude 05:35:06 82° 260° (W) 939 3.8 -15.4°
Drops below altitude 10° 05:41:04 10° 173° (S) 2,599 6.5 -14.5°
Sets 05:43:30 0° 173° (S) 3,524 7.2 -14.2°
